,,PA_Meas_PMT16A,,PR_Meas_QMR101_102,,RH_Meas_QMH101,,SR_Meas_QMS101,,TA_Meas_QMH101,,GenWind,,GenWind,
time,status,PA,status,PR,status,RH,status,SR,status,TA,status,DirAvg,status,SpdAvg,
2012-06-16, 00:00:04,VALID,917.796,VALID,0,VALID,96.1694,VALID,0,VALID,19.4493,VALID,251,VALID,0,
2012-06-16, 00:01:04,VALID,917.803,VALID,0,VALID,95.9941,VALID,0,VALID,19.4103,VALID,251,VALID,0,
2012-06-16, 00:02:04,VALID,917.764,VALID,0,VALID,96.0245,VALID,0,VALID,19.3908,VALID,251,VALID,0,
2012-06-16, 00:03:04,VALID,917.757,VALID,0,VALID,96.0932,VALID,0.107441,VALID,19.4103,VALID,251,VALID,0,
2012-06-16, 00:04:04,VALID,917.731,VALID,0,VALID,96.1694,VALID,0.107441,VALID,19.4088,VALID,251,VALID,0,
2012-06-16, 00:05:04,VALID,917.729,VALID,0,VALID,96.0703,VALID,0,VALID,19.3908,VALID,251,VALID,0,
2012-06-16, 00:06:04,VALID,917.719,VALID,0,VALID,96.1008,VALID,0,VALID,19.4118,VALID,251,VALID,0,
2012-06-16, 00:07:04,VALID,917.76,VALID,0,VALID,96.1465,VALID,0.107441,VALID,19.3908,VALID,251,VALID,0,
2012-06-16, 00:08:04,VALID,917.77,VALID,0,VALID,96.0627,VALID,0.107441,VALID,19.3713,VALID,251,VALID,0,
2012-06-16, 00:09:04,VALID,917.753,VALID,0,VALID,96.0017,VALID,0.107441,VALID,19.3323,VALID,251,VALID,0,
2012-06-16, 00:10:04,VALID,917.804,VALID,0,VALID,95.9254,VALID,0,VALID,19.2738,VALID,251,VALID,0,
2012-06-16, 00:11:04,VALID,917.791,VALID,0,VALID,96.0245,VALID,0,VALID,19.2933,VALID,113,VALID,0,
2012-06-16, 00:12:04,VALID,917.856,VALID,0,VALID,96.055,VALID,0,VALID,19.2528,VALID,113,VALID,0,
2012-06-16, 00:13:04,VALID,917.834,VALID,0,VALID,96.0093,VALID,0,VALID,19.2543,VALID,113,VALID,0,
2012-06-16, 00:14:04,VALID,917.861,VALID,0,VALID,96.0322,VALID,0,VALID,19.2348,VALID,113,VALID,0,
2012-06-16, 00:15:04,VALID,917.846,VALID,0,VALID,96.0398,VALID,0,VALID,19.1958,VALID,113,VALID,0,
2012-06-16, 00:16:04,VALID,917.799,VALID,0,VALID,96.1999,VALID,0,VALID,19.2153,VALID,113,VALID,0,
2012-06-16, 00:17:04,VALID,917.82,VALID,0,VALID,96.2228,VALID,0,VALID,19.2153,VALID,113,VALID,0,
2012-06-16, 00:18:04,VALID,917.814,VALID,0,VALID,96.2685,VALID,0.107441,VALID,19.2348,VALID,113,VALID,0,
2012-06-16, 00:19:04,VALID,917.78,VALID,0,VALID,96.2914,VALID,0,VALID,19.2543,VALID,113,VALID,0,
2012-06-16, 00:20:04,VALID,917.761,VALID,0,VALID,96.2761,VALID,0,VALID,19.2558,VALID,113,VALID,0,
2012-06-16, 00:21:04,VALID,917.76,VALID,0,VALID,96.2837,VALID,0,VALID,19.2153,VALID,113,VALID,0,
2012-06-16, 00:22:04,VALID,917.771,VALID,0,VALID,96.2914,VALID,0,VALID,19.1958,VALID,113,VALID,0,
2012-06-16, 00:23:04,VALID,917.715,VALID,0,VALID,96.3447,VALID,0,VALID,19.2153,VALID,113,VALID,0,
2012-06-16, 00:24:04,VALID,917.72,VALID,0,VALID,96.4133,VALID,0.107441,VALID,19.2348,VALID,113,VALID,0,
2012-06-16, 00:25:04,VALID,917.658,VALID,0,VALID,96.2837,VALID,0,VALID,19.1763,VALID,113,VALID,0,
2012-06-16, 00:26:04,VALID,917.653,VALID,0,VALID,96.3752,VALID,0,VALID,19.1763,VALID,113,VALID,0,
2012-06-16, 00:27:04,VALID,917.607,VALID,0,VALID,96.4362,VALID,0,VALID,19.1973,VALID,113,VALID,0,
2012-06-16, 00:28:04,VALID,917.622,VALID,0,VALID,96.4438,VALID,0,VALID,19.1973,VALID,113,VALID,0,
2012-06-16, 00:29:04,VALID,917.609,VALID,0,VALID,96.4362,VALID,0.107441,VALID,19.1568,VALID,113,VALID,0,
2012-06-16, 00:30:04,VALID,917.614,VALID,0,VALID,96.4438,VALID,0,VALID,19.1568,VALID,113,VALID,0,
2012-06-16, 00:31:04,VALID,917.608,VALID,0,VALID,96.4438,VALID,0,VALID,19.1373,VALID,113,VALID,0,
2012-06-16, 00:32:04,VALID,917.585,VALID,0,VALID,96.5048,VALID,0,VALID,19.1778,VALID,113,VALID,0,
2012-06-16, 00:33:04,VALID,917.588,VALID,0,VALID,96.5658,VALID,0,VALID,19.1958,VALID,113,VALID,0,
2012-06-16, 00:34:04,VALID,917.617,VALID,0,VALID,96.5734,VALID,0,VALID,19.2168,VALID,113,VALID,0,
2012-06-16, 00:35:04,VALID,917.615,VALID,0,VALID,96.5887,VALID,0.107441,VALID,19.2348,VALID,113,VALID,0,
2012-06-16, 00:36:04,VALID,917.611,VALID,0,VALID,96.5734,VALID,0,VALID,19.2348,VALID,113,VALID,0,
2012-06-16, 00:37:04,VALID,917.615,VALID,0,VALID,96.5506,VALID,0,VALID,19.2558,VALID,114,VALID,0,
2012-06-16, 00:38:04,VALID,917.634,VALID,0,VALID,96.5124,VALID,0,VALID,19.2348,VALID,117,VALID,0,
2012-06-16, 00:39:04,VALID,917.618,VALID,0,VALID,96.4515,VALID,0,VALID,19.2168,VALID,122,VALID,0,
2012-06-16, 00:40:04,VALID,917.567,VALID,0,VALID,96.4438,VALID,0,VALID,19.2153,VALID,122,VALID,0,
2012-06-16, 00:41:04,VALID,917.56,VALID,0,VALID,96.3524,VALID,0,VALID,19.1958,VALID,123,VALID,0,
2012-06-16, 00:42:04,VALID,917.56,VALID,0,VALID,96.3295,VALID,0,VALID,19.1958,VALID,123,VALID,0,
2012-06-16, 00:43:04,VALID,917.543,VALID,0,VALID,96.36,VALID,0,VALID,19.1973,VALID,123,VALID,0,
2012-06-16, 00:44:04,VALID,917.526,VALID,0,VALID,96.2609,VALID,0,VALID,19.1778,VALID,123,VALID,0,
2012-06-16, 00:45:04,VALID,917.521,VALID,0,VALID,96.1999,VALID,0,VALID,19.1388,VALID,123,VALID,0,
2012-06-16, 00:46:04,VALID,917.494,VALID,0,VALID,96.238,VALID,0,VALID,19.1388,VALID,157,VALID,0,
2012-06-16, 00:47:04,VALID,917.513,VALID,0,VALID,96.2228,VALID,0,VALID,19.1178,VALID,157,VALID,0,
2012-06-16, 00:48:04,VALID,917.517,VALID,0,VALID,96.2075,VALID,0,VALID,19.1388,VALID,157,VALID,0,
2012-06-16, 00:49:04,VALID,917.507,VALID,0,VALID,96.1923,VALID,0,VALID,19.1178,VALID,157,VALID,0,
2012-06-16, 00:50:04,VALID,917.477,VALID,0,VALID,96.1618,VALID,0,VALID,19.1388,VALID,157,VALID,0,
2012-06-16, 00:51:04,VALID,917.461,VALID,0,VALID,96.1236,VALID,0,VALID,19.1388,VALID,157,VALID,0,
2012-06-16, 00:52:04,VALID,917.475,VALID,0,VALID,96.1236,VALID,0,VALID,19.1193,VALID,157,VALID,0,
2012-06-16, 00:53:04,VALID,917.452,VALID,0,VALID,96.1236,VALID,0,VALID,19.0983,VALID,157,VALID,0,
2012-06-16, 00:54:04,VALID,917.464,VALID,0,VALID,96.238,VALID,0,VALID,19.1597,VALID,157,VALID,0,
2012-06-16, 00:55:04,VALID,917.391,VALID,0,VALID,96.1999,VALID,0,VALID,19.1388,VALID,157,VALID,0,
2012-06-16, 00:56:04,VALID,917.42,VALID,0,VALID,96.1618,VALID,0,VALID,19.1792,VALID,121,VALID,0,
2012-06-16, 00:57:04,VALID,917.394,VALID,0,VALID,96.055,VALID,0,VALID,19.1597,VALID,121,VALID,0,
2012-06-16, 00:58:04,VALID,917.353,VALID,0,VALID,95.9788,VALID,0,VALID,19.1402,VALID,121,VALID,0,
2012-06-16, 00:59:04,VALID,917.358,VALID,0,VALID,95.9712,VALID,0,VALID,19.1207,VALID,121,VALID,0,
2012-06-16, 01:00:04,VALID,917.327,VALID,0,VALID,95.9331,VALID,0,VALID,19.1012,VALID,120,VALID,0,
2012-06-16, 01:01:04,VALID,917.341,VALID,0,VALID,95.9178,VALID,0,VALID,19.0817,VALID,121,VALID,0,
2012-06-16, 01:02:04,VALID,917.349,VALID,0,VALID,95.8568,VALID,0,VALID,19.0622,VALID,121,VALID,0,
2012-06-16, 01:03:04,VALID,917.344,VALID,0,VALID,95.8492,VALID,0,VALID,19.0232,VALID,121,VALID,0,
2012-06-16, 01:04:04,VALID,917.352,VALID,0,VALID,95.9102,VALID,0,VALID,19.0232,VALID,121,VALID,0,
2012-06-16, 01:05:04,VALID,917.348,VALID,0,VALID,95.8263,VALID,0,VALID,19.0037,VALID,121,VALID,0,
2012-06-16, 01:06:04,VALID,917.361,VALID,0,VALID,95.8492,VALID,0,VALID,19.0037,VALID,136,VALID,0,
2012-06-16, 01:07:04,VALID,917.336,VALID,0,VALID,95.9102,VALID,0,VALID,19.0232,VALID,136,VALID,0,
2012-06-16, 01:08:04,VALID,917.332,VALID,0,VALID,95.9102,VALID,0,VALID,19.0232,VALID,136,VALID,0,
2012-06-16, 01:09:04,VALID,917.333,VALID,0,VALID,95.9636,VALID,0,VALID,19.0413,VALID,136,VALID,0,
2012-06-16, 01:10:04,VALID,917.315,VALID,0,VALID,95.8873,VALID,0,VALID,19.0608,VALID,136,VALID,0,
2012-06-16, 01:11:04,VALID,917.301,VALID,0,VALID,95.8492,VALID,0,VALID,19.0608,VALID,136,VALID,0,
2012-06-16, 01:12:04,VALID,917.295,VALID,0,VALID,95.773,VALID,0,VALID,19.0608,VALID,136,VALID,0,
2012-06-16, 01:13:04,VALID,917.292,VALID,0,VALID,95.7272,VALID,0,VALID,19.0398,VALID,136,VALID,0,
2012-06-16, 01:14:04,VALID,917.287,VALID,0,VALID,95.6815,VALID,0,VALID,19.0413,VALID,136,VALID,0,
2012-06-16, 01:15:04,VALID,917.279,VALID,0,VALID,95.6586,VALID,0,VALID,19.0413,VALID,136,VALID,0,
2012-06-16, 01:16:04,VALID,917.293,VALID,0,VALID,95.6891,VALID,0,VALID,19.0608,VALID,136,VALID,0,
2012-06-16, 01:17:04,VALID,917.281,VALID,0,VALID,95.6129,VALID,0,VALID,19.0413,VALID,132,VALID,0,
2012-06-16, 01:18:04,VALID,917.276,VALID,0,VALID,95.5443,VALID,0,VALID,19.0218,VALID,126,VALID,0,
2012-06-16, 01:19:04,VALID,917.286,VALID,0,VALID,95.4223,VALID,0,VALID,18.9633,VALID,124,VALID,0,
2012-06-16, 01:20:04,VALID,917.272,VALID,0,VALID,95.2775,VALID,0,VALID,18.9034,VALID,124,VALID,0,
2012-06-16, 01:21:04,VALID,917.245,VALID,0,VALID,95.2088,VALID,0,VALID,18.8449,VALID,124,VALID,0,
2012-06-16, 01:22:04,VALID,917.27,VALID,0,VALID,95.0564,VALID,0,VALID,18.7878,VALID,124,VALID,0,
2012-06-16, 01:23:04,VALID,917.258,VALID,0,VALID,95.1707,VALID,0,VALID,18.7474,VALID,124,VALID,0,
2012-06-16, 01:24:04,VALID,917.258,VALID,0,VALID,95.3232,VALID,0,VALID,18.7488,VALID,124,VALID,0,
2012-06-16, 01:25:04,VALID,917.25,VALID,0,VALID,95.4604,VALID,0,VALID,18.7293,VALID,124,VALID,0,
2012-06-16, 01:26:04,VALID,917.226,VALID,0,VALID,95.5519,VALID,0,VALID,18.7293,VALID,124,VALID,0,
2012-06-16, 01:27:04,VALID,917.202,VALID,0,VALID,95.6357,VALID,0,VALID,18.6889,VALID,124,VALID,0,
2012-06-16, 01:28:04,VALID,917.203,VALID,0,VALID,95.7654,VALID,0,VALID,18.7293,VALID,124,VALID,0,
2012-06-16, 01:29:04,VALID,917.171,VALID,0,VALID,95.8797,VALID,0,VALID,18.7293,VALID,124,VALID,0,
2012-06-16, 01:30:04,VALID,917.202,VALID,0,VALID,95.9941,VALID,0,VALID,18.7488,VALID,124,VALID,0,
2012-06-16, 01:31:04,VALID,917.152,VALID,0,VALID,96.1008,VALID,0,VALID,18.7474,VALID,124,VALID,0,
2012-06-16, 01:32:04,VALID,917.179,VALID,0,VALID,96.2151,VALID,0,VALID,18.8268,VALID,124,VALID,0,
2012-06-16, 01:33:04,VALID,917.154,VALID,0,VALID,96.2761,VALID,0,VALID,18.8449,VALID,124,VALID,0,
2012-06-16, 01:34:04,VALID,917.179,VALID,0,VALID,96.2761,VALID,0,VALID,18.8644,VALID,124,VALID,0,
2012-06-16, 01:35:04,VALID,917.139,VALID,0,VALID,96.2609,VALID,0,VALID,18.8839,VALID,124,VALID,0,
2012-06-16, 01:36:04,VALID,917.149,VALID,0,VALID,96.1541,VALID,0,VALID,18.8853,VALID,133,VALID,0,
2012-06-16, 01:37:04,VALID,917.214,VALID,0,VALID,96.1008,VALID,0,VALID,18.8449,VALID,133,VALID,0,
2012-06-16, 01:38:04,VALID,917.187,VALID,0,VALID,96.1465,VALID,0,VALID,18.8853,VALID,133,VALID,0,
2012-06-16, 01:39:04,VALID,917.19,VALID,0,VALID,96.1236,VALID,0,VALID,18.8658,VALID,133,VALID,0,
2012-06-16, 01:40:04,VALID,917.178,VALID,0,VALID,96.1236,VALID,0,VALID,18.8853,VALID,133,VALID,0,
2012-06-16, 01:41:04,VALID,917.228,VALID,0,VALID,96.0245,VALID,0,VALID,18.8463,VALID,125,VALID,0,
2012-06-16, 01:42:04,VALID,917.211,VALID,0,VALID,95.9636,VALID,0,VALID,18.8073,VALID,116,VALID,0,
2012-06-16, 01:43:04,VALID,917.213,VALID,0,VALID,95.9636,VALID,0,VALID,18.7683,VALID,112,VALID,0,
2012-06-16, 01:44:04,VALID,917.206,VALID,0,VALID,95.9941,VALID,0,VALID,18.7697,VALID,109,VALID,0,
2012-06-16, 01:45:04,VALID,917.198,VALID,0,VALID,96.1084,VALID,0,VALID,18.7683,VALID,109,VALID,0,
2012-06-16, 01:46:04,VALID,917.184,VALID,0,VALID,96.1313,VALID,0,VALID,18.7683,VALID,109,VALID,0,
2012-06-16, 01:47:04,VALID,917.138,VALID,0,VALID,96.1465,VALID,0,VALID,18.7488,VALID,110,VALID,0,
2012-06-16, 01:48:04,VALID,917.145,VALID,0,VALID,96.1236,VALID,0,VALID,18.7488,VALID,110,VALID,0,
2012-06-16, 01:49:04,VALID,917.133,VALID,0,VALID,96.116,VALID,0,VALID,18.7488,VALID,110,VALID,0,
2012-06-16, 01:50:04,VALID,917.134,VALID,0,VALID,96.1236,VALID,0,VALID,18.7293,VALID,110,VALID,0,
2012-06-16, 01:51:04,VALID,917.106,VALID,0,VALID,96.1694,VALID,0,VALID,18.7683,VALID,115,VALID,0,
2012-06-16, 01:52:04,VALID,917.102,VALID,0,VALID,96.1618,VALID,0,VALID,18.7892,VALID,134,VALID,0,
2012-06-16, 01:53:04,VALID,917.127,VALID,0,VALID,96.2304,VALID,0,VALID,18.7878,VALID,134,VALID,0,
2012-06-16, 01:54:04,VALID,917.097,VALID,0,VALID,96.2609,VALID,0,VALID,18.8059,VALID,134,VALID,0,
2012-06-16, 01:55:04,VALID,917.109,VALID,0,VALID,96.2609,VALID,0,VALID,18.8073,VALID,134,VALID,0,
2012-06-16, 01:56:04,VALID,917.098,VALID,0,VALID,96.238,VALID,0.107441,VALID,18.8059,VALID,134,VALID,0,
2012-06-16, 01:57:04,VALID,917.1,VALID,0,VALID,96.2533,VALID,0.107441,VALID,18.7864,VALID,134,VALID,0,
2012-06-16, 01:58:04,VALID,917.115,VALID,0,VALID,96.238,VALID,0.107441,VALID,18.7864,VALID,134,VALID,0,
2012-06-16, 01:59:04,VALID,917.133,VALID,0,VALID,96.2075,VALID,0.107441,VALID,18.7864,VALID,134,VALID,0,
2012-06-16, 02:00:04,VALID,917.132,VALID,0,VALID,96.2456,VALID,0.107441,VALID,18.8059,VALID,134,VALID,0,
2012-06-16, 02:01:04,VALID,917.116,VALID,0,VALID,96.2456,VALID,0,VALID,18.8463,VALID,134,VALID,0,
2012-06-16, 02:02:04,VALID,917.105,VALID,0,VALID,96.116,VALID,0,VALID,18.8268,VALID,134,VALID,0,
2012-06-16, 02:03:04,VALID,917.092,VALID,0,VALID,96.0474,VALID,0,VALID,18.8073,VALID,134,VALID,0,
2012-06-16, 02:04:04,VALID,917.074,VALID,0,VALID,96.1313,VALID,0.107441,VALID,18.8268,VALID,134,VALID,0,
2012-06-16, 02:05:04,VALID,917.074,VALID,0,VALID,96.1313,VALID,0,VALID,18.8059,VALID,145,VALID,0,
2012-06-16, 02:06:04,VALID,917.04,VALID,0,VALID,96.1313,VALID,0.107441,VALID,18.7864,VALID,148,VALID,0,
2012-06-16, 02:07:04,VALID,917.051,VALID,0,VALID,96.177,VALID,0,VALID,18.8268,VALID,148,VALID,0,
2012-06-16, 02:08:04,VALID,917.034,VALID,0,VALID,96.2151,VALID,0.107441,VALID,18.8059,VALID,127,VALID,0,
2012-06-16, 02:09:04,VALID,917.021,VALID,0,VALID,96.2151,VALID,0,VALID,18.8059,VALID,127,VALID,0,
2012-06-16, 02:10:04,VALID,916.951,VALID,0,VALID,96.2075,VALID,0.107441,VALID,18.7864,VALID,127,VALID,0,
2012-06-16, 02:11:04,VALID,916.941,VALID,0,VALID,96.2456,VALID,0,VALID,18.7669,VALID,127,VALID,0,
2012-06-16, 02:12:04,VALID,916.957,VALID,0,VALID,96.299,VALID,0,VALID,18.8268,VALID,127,VALID,0,
2012-06-16, 02:13:04,VALID,916.923,VALID,0,VALID,96.3447,VALID,0,VALID,18.8268,VALID,127,VALID,0,
2012-06-16, 02:14:04,VALID,916.904,VALID,0,VALID,96.3219,VALID,0,VALID,18.8449,VALID,127,VALID,0,
2012-06-16, 02:15:04,VALID,916.94,VALID,0,VALID,96.3295,VALID,0.107441,VALID,18.8644,VALID,127,VALID,0,
2012-06-16, 02:16:04,VALID,916.937,VALID,0,VALID,96.2761,VALID,0,VALID,18.8853,VALID,127,VALID,0,
2012-06-16, 02:17:04,VALID,916.903,VALID,0,VALID,96.1541,VALID,0,VALID,18.8853,VALID,127,VALID,0,
2012-06-16, 02:18:04,VALID,916.87,VALID,0,VALID,96.0245,VALID,0.107441,VALID,18.8268,VALID,127,VALID,0,
2012-06-16, 02:19:04,VALID,916.854,VALID,0,VALID,96.2304,VALID,0.107441,VALID,18.8853,VALID,127,VALID,0,
2012-06-16, 02:20:04,VALID,916.845,VALID,0,VALID,96.299,VALID,0,VALID,18.9424,VALID,127,VALID,0,
2012-06-16, 02:21:04,VALID,916.841,VALID,0,VALID,96.2304,VALID,0.107441,VALID,18.9619,VALID,127,VALID,0,
2012-06-16, 02:22:04,VALID,916.803,VALID,0,VALID,96.116,VALID,0.107441,VALID,19.0023,VALID,127,VALID,0,
2012-06-16, 02:23:04,VALID,916.79,VALID,0,VALID,96.0855,VALID,0,VALID,19.0203,VALID,127,VALID,0,
2012-06-16, 02:24:04,VALID,916.785,VALID,0,VALID,96.055,VALID,0.107441,VALID,19.0803,VALID,127,VALID,0,
2012-06-16, 02:25:04,VALID,916.766,VALID,0,VALID,95.9864,VALID,0,VALID,19.1193,VALID,127,VALID,0,
2012-06-16, 02:26:04,VALID,916.765,VALID,0,VALID,95.8416,VALID,0,VALID,19.1193,VALID,127,VALID,0,
2012-06-16, 02:27:04,VALID,916.743,VALID,0,VALID,95.6967,VALID,0,VALID,19.1178,VALID,127,VALID,0,
2012-06-16, 02:28:04,VALID,916.75,VALID,0,VALID,95.5443,VALID,0.107441,VALID,19.1178,VALID,127,VALID,0,
2012-06-16, 02:29:04,VALID,916.755,VALID,0,VALID,95.3308,VALID,0.107441,VALID,19.0983,VALID,127,VALID,0,
2012-06-16, 02:30:04,VALID,916.734,VALID,0,VALID,95.1707,VALID,0,VALID,19.0593,VALID,127,VALID,0,
2012-06-16, 02:31:04,VALID,916.722,VALID,0,VALID,95.0564,VALID,0,VALID,19.0608,VALID,127,VALID,0,
2012-06-16, 02:32:04,VALID,916.739,VALID,0,VALID,95.0259,VALID,0,VALID,19.0803,VALID,127,VALID,0,
2012-06-16, 02:33:04,VALID,916.73,VALID,0,VALID,94.881,VALID,0,VALID,19.0608,VALID,127,VALID,0,
2012-06-16, 02:34:04,VALID,916.715,VALID,0,VALID,94.7286,VALID,0.107441,VALID,18.9814,VALID,127,VALID,0,
2012-06-16, 02:35:04,VALID,916.713,VALID,0,VALID,94.66,VALID,0.107441,VALID,18.9814,VALID,127,VALID,0,
2012-06-16, 02:36:04,VALID,916.681,VALID,0,VALID,94.7209,VALID,0.107441,VALID,18.9633,VALID,127,VALID,0,
2012-06-16, 02:37:04,VALID,916.679,VALID,0,VALID,94.7591,VALID,0.107441,VALID,18.9229,VALID,127,VALID,0,
2012-06-16, 02:38:04,VALID,916.673,VALID,0,VALID,94.7667,VALID,0,VALID,18.9048,VALID,127,VALID,0,
2012-06-16, 02:39:04,VALID,916.636,VALID,0,VALID,94.8887,VALID,0,VALID,18.8839,VALID,127,VALID,0,
2012-06-16, 02:40:04,VALID,916.6,VALID,0,VALID,95.1097,VALID,0,VALID,18.9048,VALID,127,VALID,0,
2012-06-16, 02:41:04,VALID,916.573,VALID,0,VALID,95.2012,VALID,0,VALID,18.8853,VALID,127,VALID,0,
2012-06-16, 02:42:04,VALID,916.574,VALID,0,VALID,95.1707,VALID,0.107441,VALID,18.8268,VALID,127,VALID,0,
2012-06-16, 02:43:04,VALID,916.559,VALID,0,VALID,95.3079,VALID,0,VALID,18.7878,VALID,127,VALID,0,
2012-06-16, 02:44:04,VALID,916.569,VALID,0,VALID,95.3842,VALID,0,VALID,18.7683,VALID,127,VALID,0,
2012-06-16, 02:45:04,VALID,916.552,VALID,0,VALID,95.5519,VALID,0,VALID,18.7488,VALID,127,VALID,0,
2012-06-16, 02:46:04,VALID,916.529,VALID,0,VALID,95.6357,VALID,0,VALID,18.7878,VALID,127,VALID,0,
2012-06-16, 02:47:04,VALID,916.553,VALID,0,VALID,95.6205,VALID,0.107441,VALID,18.7474,VALID,127,VALID,0,
2012-06-16, 02:48:04,VALID,916.546,VALID,0,VALID,95.6053,VALID,0,VALID,18.7279,VALID,127,VALID,0,
2012-06-16, 02:49:04,VALID,916.551,VALID,0,VALID,95.6586,VALID,0,VALID,18.7488,VALID,127,VALID,0,
2012-06-16, 02:50:04,VALID,916.546,VALID,0,VALID,95.6434,VALID,0,VALID,18.7293,VALID,127,VALID,0,
2012-06-16, 02:51:04,VALID,916.56,VALID,0,VALID,95.7196,VALID,0,VALID,18.7293,VALID,127,VALID,0,
2012-06-16, 02:52:04,VALID,916.559,VALID,0,VALID,95.6891,VALID,0,VALID,18.7293,VALID,127,VALID,0,
2012-06-16, 02:53:04,VALID,916.586,VALID,0,VALID,95.4985,VALID,0,VALID,18.6903,VALID,127,VALID,0,
2012-06-16, 02:54:04,VALID,916.542,VALID,0,VALID,95.4909,VALID,0,VALID,18.6109,VALID,127,VALID,0,
2012-06-16, 02:55:04,VALID,916.537,VALID,0,VALID,95.773,VALID,0,VALID,18.7098,VALID,127,VALID,0,
2012-06-16, 02:56:04,VALID,916.539,VALID,0,VALID,95.7425,VALID,0,VALID,18.7488,VALID,127,VALID,0,
2012-06-16, 02:57:04,VALID,916.546,VALID,0,VALID,95.7272,VALID,0,VALID,18.7683,VALID,127,VALID,0,
2012-06-16, 02:58:04,VALID,916.546,VALID,0,VALID,95.6891,VALID,0,VALID,18.7683,VALID,127,VALID,0,
2012-06-16, 02:59:04,VALID,916.537,VALID,0,VALID,95.6739,VALID,0,VALID,18.7864,VALID,127,VALID,0,
2012-06-16, 03:00:04,VALID,916.562,VALID,0,VALID,95.6205,VALID,0,VALID,18.8059,VALID,127,VALID,0,
2012-06-16, 03:01:04,VALID,916.538,VALID,0,VALID,95.5367,VALID,0,VALID,18.8073,VALID,127,VALID,0,
2012-06-16, 03:02:04,VALID,916.536,VALID,0,VALID,95.4223,VALID,0,VALID,18.8087,VALID,127,VALID,0,
2012-06-16, 03:03:04,VALID,916.576,VALID,0,VALID,95.3537,VALID,0,VALID,18.7878,VALID,127,VALID,0,
2012-06-16, 03:04:04,VALID,916.565,VALID,0,VALID,95.2927,VALID,0,VALID,18.7488,VALID,127,VALID,0,
2012-06-16, 03:05:04,VALID,916.549,VALID,0,VALID,95.2546,VALID,0,VALID,18.7293,VALID,127,VALID,0,
2012-06-16, 03:06:04,VALID,916.544,VALID,0,VALID,95.3308,VALID,0.107441,VALID,18.6889,VALID,127,VALID,0,
2012-06-16, 03:07:04,VALID,916.548,VALID,0,VALID,95.3766,VALID,0,VALID,18.6903,VALID,137,VALID,0,
2012-06-16, 03:08:04,VALID,916.569,VALID,0,VALID,95.468,VALID,0,VALID,18.7098,VALID,138,VALID,0,
2012-06-16, 03:09:04,VALID,916.556,VALID,0,VALID,95.4757,VALID,0,VALID,18.6903,VALID,138,VALID,0,
2012-06-16, 03:10:04,VALID,916.553,VALID,0,VALID,95.59,VALID,0,VALID,18.7293,VALID,138,VALID,0,
2012-06-16, 03:11:04,VALID,916.544,VALID,0,VALID,95.6434,VALID,0,VALID,18.7293,VALID,138,VALID,0,
2012-06-16, 03:12:04,VALID,916.554,VALID,0,VALID,95.7654,VALID,0,VALID,18.7293,VALID,138,VALID,0,
2012-06-16, 03:13:04,VALID,916.577,VALID,0,VALID,95.8035,VALID,0,VALID,18.7488,VALID,138,VALID,0,
2012-06-16, 03:14:04,VALID,916.586,VALID,0,VALID,95.8111,VALID,0,VALID,18.7488,VALID,138,VALID,0,
2012-06-16, 03:15:04,VALID,916.577,VALID,0,VALID,95.8416,VALID,0,VALID,18.7293,VALID,138,VALID,0,
2012-06-16, 03:16:04,VALID,916.59,VALID,0,VALID,95.8568,VALID,0,VALID,18.7084,VALID,138,VALID,0,
2012-06-16, 03:17:04,VALID,916.573,VALID,0,VALID,95.8797,VALID,0,VALID,18.7098,VALID,138,VALID,0,
2012-06-16, 03:18:04,VALID,916.564,VALID,0,VALID,95.8721,VALID,0,VALID,18.6903,VALID,138,VALID,0,
2012-06-16, 03:19:04,VALID,916.558,VALID,0,VALID,95.9483,VALID,0,VALID,18.7293,VALID,138,VALID,0,
2012-06-16, 03:20:04,VALID,916.554,VALID,0,VALID,96.0474,VALID,0,VALID,18.7293,VALID,138,VALID,0,
2012-06-16, 03:21:04,VALID,916.548,VALID,0,VALID,96.0627,VALID,0,VALID,18.7474,VALID,132,VALID,0,
2012-06-16, 03:22:04,VALID,916.553,VALID,0,VALID,96.0855,VALID,0,VALID,18.8073,VALID,131,VALID,0,
2012-06-16, 03:23:04,VALID,916.548,VALID,0,VALID,96.0703,VALID,0,VALID,18.8073,VALID,132,VALID,0,
2012-06-16, 03:24:04,VALID,916.572,VALID,0,VALID,96.0398,VALID,0,VALID,18.8463,VALID,132,VALID,0,
2012-06-16, 03:25:04,VALID,916.582,VALID,0,VALID,95.9178,VALID,0,VALID,18.8463,VALID,132,VALID,0,
2012-06-16, 03:26:04,VALID,916.553,VALID,0,VALID,95.8492,VALID,0,VALID,18.8463,VALID,132,VALID,0,
2012-06-16, 03:27:04,VALID,916.506,VALID,0,VALID,95.7806,VALID,0,VALID,18.8463,VALID,132,VALID,0,
2012-06-16, 03:28:04,VALID,916.495,VALID,0,VALID,95.7349,VALID,0,VALID,18.8268,VALID,132,VALID,0,
2012-06-16, 03:29:04,VALID,916.493,VALID,0,VALID,95.651,VALID,0,VALID,18.8463,VALID,132,VALID,0,
2012-06-16, 03:30:04,VALID,916.447,VALID,0,VALID,95.5671,VALID,0.107441,VALID,18.8463,VALID,132,VALID,0,
2012-06-16, 03:31:04,VALID,916.445,VALID,0,VALID,95.5138,VALID,0,VALID,18.8268,VALID,132,VALID,0,
2012-06-16, 03:32:04,VALID,916.408,VALID,0,VALID,95.3994,VALID,0,VALID,18.8268,VALID,132,VALID,0,
2012-06-16, 03:33:04,VALID,916.427,VALID,0,VALID,95.3842,VALID,0,VALID,18.7683,VALID,132,VALID,0,
2012-06-16, 03:34:04,VALID,916.404,VALID,0,VALID,95.468,VALID,0,VALID,18.7488,VALID,132,VALID,0,
2012-06-16, 03:35:04,VALID,916.399,VALID,0,VALID,95.5519,VALID,0,VALID,18.7488,VALID,131,VALID,0,
2012-06-16, 03:36:04,VALID,916.405,VALID,0,VALID,95.6434,VALID,0,VALID,18.7488,VALID,131,VALID,0,
2012-06-16, 03:37:04,VALID,916.443,VALID,0,VALID,95.7044,VALID,0.107441,VALID,18.7279,VALID,131,VALID,0,
2012-06-16, 03:38:04,VALID,916.396,VALID,0,VALID,95.6967,VALID,0,VALID,18.7474,VALID,131,VALID,0,
2012-06-16, 03:39:04,VALID,916.433,VALID,0,VALID,95.7196,VALID,0.107441,VALID,18.7488,VALID,131,VALID,0,
2012-06-16, 03:40:04,VALID,916.427,VALID,0,VALID,95.6967,VALID,0,VALID,18.7293,VALID,150,VALID,0,
2012-06-16, 03:41:04,VALID,916.415,VALID,0,VALID,95.712,VALID,0,VALID,18.7098,VALID,147,VALID,0,
2012-06-16, 03:42:04,VALID,916.409,VALID,0,VALID,95.651,VALID,0,VALID,18.6694,VALID,144,VALID,0,
2012-06-16, 03:43:04,VALID,916.387,VALID,0,VALID,95.6586,VALID,0,VALID,18.6903,VALID,143,VALID,0,
2012-06-16, 03:44:04,VALID,916.378,VALID,0,VALID,95.773,VALID,0,VALID,18.7098,VALID,143,VALID,0,
2012-06-16, 03:45:04,VALID,916.366,VALID,0,VALID,95.8187,VALID,0.107441,VALID,18.7488,VALID,143,VALID,0,
2012-06-16, 03:46:04,VALID,916.382,VALID,0,VALID,95.8035,VALID,0,VALID,18.7503,VALID,143,VALID,0,
2012-06-16, 03:47:04,VALID,916.392,VALID,0,VALID,95.834,VALID,0,VALID,18.7683,VALID,143,VALID,0,
2012-06-16, 03:48:04,VALID,916.409,VALID,0,VALID,95.8568,VALID,0,VALID,18.7878,VALID,143,VALID,0,
2012-06-16, 03:49:04,VALID,916.422,VALID,0,VALID,95.8721,VALID,0,VALID,18.8268,VALID,143,VALID,0,
2012-06-16, 03:50:04,VALID,916.438,VALID,0,VALID,95.8492,VALID,0,VALID,18.8463,VALID,143,VALID,0,
2012-06-16, 03:51:04,VALID,916.445,VALID,0,VALID,95.7882,VALID,0,VALID,18.8853,VALID,143,VALID,0,
2012-06-16, 03:52:04,VALID,916.425,VALID,0,VALID,95.7044,VALID,0,VALID,18.9048,VALID,143,VALID,0,
2012-06-16, 03:53:04,VALID,916.426,VALID,0,VALID,95.6205,VALID,0,VALID,18.8644,VALID,143,VALID,0,
2012-06-16, 03:54:04,VALID,916.465,VALID,0,VALID,95.5062,VALID,0,VALID,18.8853,VALID,134,VALID,0,
2012-06-16, 03:55:04,VALID,916.445,VALID,0,VALID,95.3613,VALID,0,VALID,18.9048,VALID,134,VALID,0,
2012-06-16, 03:56:04,VALID,916.485,VALID,0,VALID,95.2317,VALID,0,VALID,18.9048,VALID,134,VALID,0,
2012-06-16, 03:57:04,VALID,916.481,VALID,0,VALID,95.1479,VALID,0,VALID,18.8839,VALID,134,VALID,0,